Back to catalog

FENGYUN 1C DEB

LostSSO
NORAD 41001·DEBRIS·🇨🇳 China

Launched May 10, 1999 from Taiyuan Satellite Launch Center

Loading…

Next Passes (next 24 hours)

TLE

StaleSource: Space-Track

Epoch: Sep 18, 2022, 21:07 UTC

1 41001U 99025EXF 22261.88028105  .00002788  00000-0  12334-2 0  9996
2 41001  98.9444 307.7250 0040289 191.9509 344.9734 14.23596191442091

Track FENGYUN 1C DEB in real time with AllMySat

Download on the App Store